Location: Unspecified
(0.0000°N, 0.0000°E)
Time: 00:06:02
(UTC+00:00)

deb S5M - Pass Details

Date: 22 June 2024
Orbit: 775 x 867 km, 82.5° (Epoch: 14 July)

Event Time Altitude Azimuth Distance (km) Brightness Sun altitude
Exits shadow 03:23:00 25° 108° (ESE) 1,611 ? -35.9°
Maximum altitude 03:23:53 26° 93° (E) 1,574 ? -35.8°
Drops below altitude 10° 03:28:22 10° 38° (NE) 2,437 ? -34.8°
Sets 03:31:09 0° 26° (NNE) 3,385 ? -34.2°
